This is the latest recevied weather packets stored in our database for station/object KC1OEK-13. If no packets are shown the sender has not sent any weather packets the latest 10 day(s).
| Time | Temp. | Humidity | Pressure | Rain* | Wind** | Luminosity | Snow |
|---|---|---|---|---|---|---|---|
| 1787862159 | 24.44° C | 83% | 1018.5 hPa | 0 mm | - | 238 W/m² | - |
| 1787861854 | 24.44° C | 83% | 1018.6 hPa | 0 mm | - | 115 W/m² | - |
| 1787861552 | 24.44° C | 84% | 1018.6 hPa | 0 mm | - | 312 W/m² | - |
| 1787861247 | 24.44° C | 83% | 1018.6 hPa | 0 mm | - | 192 W/m² | - |
| 1787860947 | 24.44° C | 83% | 1018.3 hPa | 0 mm | - | 217 W/m² | - |
| 1787860641 | 24.44° C | 84% | 1018.7 hPa | 0 mm | - | 225 W/m² | - |
| 1787860336 | 24.44° C | 82% | 1018.7 hPa | 0 mm | - | 197 W/m² | - |
| 1787860031 | 23.89° C | 84% | 1018.8 hPa | 0 mm | - | 236 W/m² | - |
| 1787859727 | 23.89° C | 84% | 1019 hPa | 0 mm | - | 213 W/m² | - |
| 1787859427 | 24.44° C | 83% | 1019.1 hPa | 0 mm | - | 186 W/m² | - |
| 1787859121 | 24.44° C | 82% | 1018.9 hPa | 0 mm | - | 156 W/m² | - |
| 1787858818 | 24.44° C | 83% | 1019.2 hPa | 0 mm | - | 105 W/m² | - |
| 1787858513 | 24.44° C | 82% | 1019.2 hPa | 0 mm | - | 145 W/m² | - |
| 1787858212 | 24.44° C | 81% | 1019.4 hPa | 0 mm | - | 92 W/m² | - |
| 1787857908 | 24.44° C | 80% | 1019 hPa | 0 mm | - | 179 W/m² | - |
| 1787857605 | 24.44° C | 81% | 1019.1 hPa | 0 mm | - | 188 W/m² | - |
| 1787857304 | 24.44° C | 80% | 1019.1 hPa | 0 mm | - | 135 W/m² | - |
| 1787857003 | 25° C | 81% | 1019.2 hPa | 0 mm | - | 142 W/m² | - |
| 1787856702 | 25° C | 78% | 1019 hPa | 0 mm | - | 220 W/m² | - |
| 1787856397 | 25.56° C | 78% | 1018.9 hPa | 0 mm | - | 258 W/m² | - |
| 1787856092 | 25.56° C | 77% | 1018.9 hPa | 0 mm | - | 303 W/m² | - |
| 1787855787 | 25.56° C | 77% | 1019 hPa | 0 mm | - | 280 W/m² | - |
| 1787855483 | 26.11° C | 76% | 1018.9 hPa | 0 mm | - | 266 W/m² | - |
| 1787855178 | 26.11° C | 75% | 1018.8 hPa | 0 mm | - | 288 W/m² | - |
| 1787854873 | 26.67° C | 74% | 1019.1 hPa | 0 mm | - | 311 W/m² | - |
* Rain latest hour (hover to see other rain measurements)
** Current wind speed in m/s (hover to see current wind gust speed)